When you browse on this site, cookies collect data to enhance your experience and personalize the content and advertising you see.
Visit our Privacy Policy to learn more. By continuing to use the site, you agree to this use of cookies and data.
  • In Switzerland
  • List of Countries
  • For 7 days
  • Water Temperature
  • Weather Map
  • Weather Widgets
  • user-avatar
    Login

    Hourly Weather Toulon

    Today, 27 February, Thursday

    Time Temperature Precipitation Wind Pressure Humidity
    00:00 +3°C° 0 mm 10 mps 751 mmHg 45%
    01:00 +3°C° 0 mm 10 mps 750 mmHg 47%
    02:00 +3°C° 0 mm 9 mps 750 mmHg 49%
    03:00 +3°C° 0 mm 9 mps 750 mmHg 50%
    04:00 +3°C° 0 mm 9 mps 750 mmHg 52%
    05:00 +4°C° 0 mm 8 mps 750 mmHg 53%
    06:00 +3°C° 0 mm 7 mps 750 mmHg 55%
    07:00 +5°C° 0 mm 7 mps 750 mmHg 53%
    08:00 +6°C° 0 mm 7 mps 750 mmHg 51%
    09:00 +8°C° 0 mm 7 mps 750 mmHg 49%
    10:00 +7°C° 0.2 mm 8 mps 750 mmHg 60%
    11:00 +7°C° 0.2 mm 8 mps 750 mmHg 71%
    12:00 +7°C° 0.2 mm 8 mps 749 mmHg 82%
    13:00 +7°C° 0.6 mm 9 mps 749 mmHg 83%
    14:00 +8°C° 0.6 mm 10 mps 748 mmHg 83%
    15:00 +8°C° 0.6 mm 10 mps 747 mmHg 83%
    16:00 +9°C° 0.1 mm 11 mps 747 mmHg 82%
    17:00 +9°C° 0.1 mm 12 mps 747 mmHg 80%
    18:00 +10°C° 0.1 mm 13 mps 747 mmHg 78%
    19:00 +10°C° 0 mm 12 mps 747 mmHg 79%
    20:00 +11°C° 0 mm 11 mps 747 mmHg 81%
    21:00 +9°C° 0 mm 11 mps 748 mmHg 82%
    22:00 +9°C° 0 mm 11 mps 748 mmHg 78%
    23:00 +8°C° 0 mm 11 mps 749 mmHg 73%

    Tomorrow, 28 February, Friday

    Time Temperature Precipitation Wind Pressure Humidity
    00:00 +8°C° 0 mm 11 mps 749 mmHg 69%
    01:00 +8°C° 0 mm 11 mps 749 mmHg 60%
    02:00 +7°C° 0 mm 12 mps 749 mmHg 51%
    03:00 +7°C° 0 mm 12 mps 749 mmHg 42%
    04:00 +5°C° 0 mm 12 mps 750 mmHg 45%
    05:00 +4°C° 0 mm 11 mps 750 mmHg 47%
    06:00 +3°C° 0 mm 10 mps 750 mmHg 50%
    07:00 +5°C° 0 mm 9 mps 751 mmHg 47%
    08:00 +6°C° 0 mm 9 mps 751 mmHg 44%
    09:00 +7°C° 0 mm 8 mps 751 mmHg 41%
    10:00 +10°C° 0 mm 8 mps 751 mmHg 37%
    11:00 +12°C° 0 mm 8 mps 751 mmHg 32%
    12:00 +14°C° 0 mm 7 mps 751 mmHg 27%
    13:00 +15°C° 0 mm 7 mps 751 mmHg 26%
    14:00 +15°C° 0 mm 6 mps 751 mmHg 26%
    15:00 +16°C° 0 mm 6 mps 751 mmHg 25%
    16:00 +14°C° 0 mm 5 mps 751 mmHg 29%
    17:00 +13°C° 0 mm 4 mps 752 mmHg 33%
    18:00 +11°C° 0 mm 3 mps 752 mmHg 36%
    19:00 +11°C° 0 mm 3 mps 752 mmHg 40%
    20:00 +10°C° 0 mm 2 mps 752 mmHg 43%
    21:00 +10°C° 0 mm 2 mps 752 mmHg 47%
    22:00 +9°C° 0 mm 2 mps 752 mmHg 49%
    23:00 +9°C° 0 mm 2 mps 751 mmHg 51%

    Day after tomorrow, 29 February, Saturday

    Time Temperature Precipitation Wind Pressure Humidity
    00:00 +9°C° 0 mm 2 mps 751 mmHg 53%
    01:00 +9°C° 0 mm 3 mps 751 mmHg 56%
    02:00 +7°C° 0 mm 4 mps 750 mmHg 60%
    03:00 +7°C° 0 mm 4 mps 750 mmHg 64%
    04:00 +8°C° 0 mm 5 mps 749 mmHg 64%
    05:00 +8°C° 0 mm 5 mps 749 mmHg 65%
    06:00 +8°C° 0 mm 6 mps 749 mmHg 66%
    07:00 +9°C° 0 mm 6 mps 748 mmHg 70%
    08:00 +9°C° 0 mm 7 mps 748 mmHg 75%
    09:00 +10°C° 0 mm 7 mps 748 mmHg 79%
    10:00 +10°C° 0.1 mm 7 mps 748 mmHg 79%
    11:00 +11°C° 0.1 mm 7 mps 747 mmHg 79%
    12:00 +11°C° 0.1 mm 7 mps 747 mmHg 79%
    13:00 +11°C° 0.2 mm 6 mps 746 mmHg 81%
    14:00 +11°C° 0.2 mm 6 mps 746 mmHg 83%
    15:00 +12°C° 0.2 mm 5 mps 745 mmHg 84%
    16:00 +10°C° 0.1 mm 5 mps 745 mmHg 84%
    17:00 +10°C° 0.1 mm 4 mps 745 mmHg 83%
    18:00 +9°C° 0.1 mm 3 mps 745 mmHg 83%
    19:00 +9°C° 0 mm 3 mps 745 mmHg 83%
    20:00 +9°C° 0 mm 3 mps 745 mmHg 84%
    21:00 +9°C° 0 mm 2 mps 745 mmHg 85%
    22:00 +9°C° 0 mm 3 mps 745 mmHg 85%
    23:00 +9°C° 0 mm 3 mps 745 mmHg 86%

    1 March, Sunday

    Time Temperature Precipitation Wind Pressure Humidity
    00:00 +9°C° 0 mm 3 mps 746 mmHg 86%
    01:00 +8°C° 0 mm 4 mps 745 mmHg 84%
    02:00 +8°C° 0 mm 4 mps 745 mmHg 82%
    03:00 +8°C° 0 mm 5 mps 745 mmHg 80%
    04:00 +8°C° 0 mm 5 mps 745 mmHg 76%
    05:00 +8°C° 0 mm 4 mps 745 mmHg 72%
    06:00 +8°C° 0 mm 4 mps 745 mmHg 67%
    07:00 +10°C° 0 mm 4 mps 745 mmHg 61%
    08:00 +11°C° 0 mm 4 mps 745 mmHg 56%
    09:00 +12°C° 0 mm 4 mps 745 mmHg 50%
    10:00 +13°C° 0 mm 4 mps 744 mmHg 48%
    11:00 +13°C° 0 mm 4 mps 744 mmHg 45%
    12:00 +14°C° 0 mm 3 mps 744 mmHg 43%
    13:00 +14°C° 0 mm 4 mps 743 mmHg 47%
    14:00 +13°C° 0 mm 4 mps 742 mmHg 51%
    15:00 +13°C° 0 mm 4 mps 741 mmHg 56%
    16:00 +12°C° 0.1 mm 3 mps 741 mmHg 60%
    17:00 +13°C° 0.1 mm 2 mps 742 mmHg 65%
    18:00 +12°C° 0.1 mm 2 mps 742 mmHg 70%
    19:00 +10°C° 0.1 mm 5 mps 742 mmHg 69%
    20:00 +10°C° 0.1 mm 8 mps 742 mmHg 68%
    21:00 +9°C° 0.1 mm 11 mps 743 mmHg 67%
    22:00 +8°C° 0 mm 11 mps 743 mmHg 65%
    23:00 +8°C° 0 mm 10 mps 743 mmHg 62%

    2 March, Monday

    Time Temperature Precipitation Wind Pressure Humidity
    00:00 +7°C° 0 mm 9 mps 743 mmHg 60%
    01:00 +6°C° 0 mm 8 mps 743 mmHg 62%
    02:00 +6°C° 0 mm 7 mps 743 mmHg 63%
    03:00 +6°C° 0 mm 5 mps 743 mmHg 64%
    04:00 +6°C° 0 mm 5 mps 742 mmHg 64%
    05:00 +6°C° 0 mm 4 mps 742 mmHg 65%
    06:00 +6°C° 0 mm 4 mps 742 mmHg 65%
    07:00 +8°C° 0 mm 3 mps 741 mmHg 59%
    08:00 +9°C° 0 mm 3 mps 741 mmHg 53%
    09:00 +12°C° 0 mm 2 mps 740 mmHg 47%
    10:00 +10°C° 1.5 mm 3 mps 740 mmHg 60%
    11:00 +9°C° 1.5 mm 3 mps 739 mmHg 73%
    12:00 +8°C° 1.5 mm 3 mps 739 mmHg 86%
    13:00 +7°C° 1.2 mm 4 mps 738 mmHg 86%
    14:00 +6°C° 1.2 mm 5 mps 737 mmHg 86%
    15:00 +5°C° 1.2 mm 6 mps 737 mmHg 87%
    16:00 +6°C° 0.3 mm 5 mps 737 mmHg 87%
    17:00 +6°C° 0.3 mm 5 mps 737 mmHg 86%
    18:00 +6°C° 0.3 mm 5 mps 738 mmHg 86%
    19:00 +5°C° 0 mm 6 mps 738 mmHg 84%
    20:00 +5°C° 0 mm 7 mps 739 mmHg 82%
    21:00 +5°C° 0 mm 8 mps 739 mmHg 80%
    22:00 +5°C° 0 mm 9 mps 740 mmHg 76%
    23:00 +5°C° 0 mm 10 mps 740 mmHg 72%

    3 March, Tuesday

    Time Temperature Precipitation Wind Pressure Humidity
    00:00 +4°C° 0 mm 11 mps 740 mmHg 68%
    01:00 +4°C° 0 mm 12 mps 740 mmHg 66%
    02:00 +3°C° 0 mm 12 mps 740 mmHg 64%
    03:00 +3°C° 0 mm 13 mps 741 mmHg 61%
    04:00 +3°C° 0 mm 14 mps 741 mmHg 62%
    05:00 +1°C° 0 mm 14 mps 741 mmHg 62%
    06:00 +1°C° 0 mm 15 mps 742 mmHg 62%
    07:00 +3°C° 0 mm 14 mps 742 mmHg 58%
    08:00 +4°C° 0 mm 14 mps 742 mmHg 53%
    09:00 +5°C° 0 mm 14 mps 743 mmHg 49%
    10:00 +6°C° 0 mm 14 mps 743 mmHg 45%
    11:00 +8°C° 0 mm 14 mps 744 mmHg 42%
    12:00 +10°C° 0 mm 13 mps 744 mmHg 38%
    13:00 +10°C° 0 mm 13 mps 744 mmHg 37%
    14:00 +9°C° 0 mm 13 mps 744 mmHg 36%
    15:00 +9°C° 0 mm 13 mps 744 mmHg 35%
    16:00 +8°C° 0 mm 13 mps 744 mmHg 38%
    17:00 +7°C° 0 mm 12 mps 744 mmHg 41%
    18:00 +5°C° 0 mm 12 mps 744 mmHg 44%
    19:00 +4°C° 0 mm 11 mps 744 mmHg 44%
    20:00 +5°C° 0 mm 10 mps 745 mmHg 44%
    21:00 +5°C° 0 mm 10 mps 745 mmHg 44%
    22:00 +5°C° 0 mm 10 mps 745 mmHg 45%
    23:00 +5°C° 0 mm 10 mps 744 mmHg 46%
    Show more